Date,TemperatureHighF,TemperatureAvgF,TemperatureLowF,DewpointHighF,DewpointAvgF,DewpointLowF,HumidityHigh,HumidityAvg,HumidityLow,PressureMaxIn,PressureMinIn,WindSpeedMaxMPH,WindSpeedAvgMPH,GustSpeedMaxMPH,PrecipitationSumIn
2013-5-1,76.0,66.0,56.0,57.0,53.7,49.0,95,67,45,0.00,40.00,8,4,18,0.00
2013-5-2,75.0,66.6,58.0,55.0,51.8,50.0,76,60,44,0.00,40.00,12,7,21,0.00
2013-5-3,71.0,62.6,55.0,53.0,50.1,44.0,86,65,39,0.00,40.00,11,6,19,0.00
2013-5-4,65.0,59.2,54.0,55.0,46.9,36.0,100,65,49,0.00,40.00,9,5,18,0.48
2013-5-5,58.0,53.8,52.0,56.0,51.3,49.0,100,91,84,0.00,40.00,9,5,18,1.14
2013-5-6,69.0,56.5,50.0,56.0,51.2,48.0,100,84,55,0.00,40.00,5,3,13,0.78
2013-5-7,69.0,57.0,47.0,57.0,50.4,47.0,100,81,57,0.00,40.00,3,2,10,0.12
2013-5-8,73.0,61.5,55.0,60.0,56.9,55.0,100,87,53,0.00,40.00,4,2,10,0.17
2013-5-9,79.0,63.0,54.0,63.0,57.5,54.0,100,85,43,0.00,40.00,5,2,11,0.04
2013-5-10,76.0,64.7,55.0,62.0,56.4,-99.9,100,80,60,0.00,40.00,5,2,15,0.00
2013-5-11,75.0,65.5,58.0,65.0,58.2,51.0,97,78,59,0.00,40.00,4,2,15,0.16
2013-5-12,65.0,57.1,52.0,52.0,37.4,-99.9,94,54,27,0.00,40.00,5,3,12,0.03
2013-5-13,65.0,54.1,39.0,40.0,32.5,28.0,89,48,25,0.00,40.00,5,3,13,0.00
2013-5-14,79.0,58.0,40.0,53.0,44.1,36.0,92,64,38,0.00,40.00,6,2,13,0.00
2013-5-15,86.0,73.2,61.0,58.0,55.4,52.0,80,56,37,0.00,40.00,5,3,16,0.00
2013-5-16,83.0,60.3,57.0,62.0,32.3,-99.9,93,68,39,0.00,40.00,4,2,12,0.00
2013-5-17,82.0,68.0,57.0,64.0,50.4,-99.9,100,76,44,0.00,40.00,4,2,9,0.00
2013-5-18,71.0,66.3,62.0,69.0,64.6,60.0,100,94,75,0.00,40.00,4,2,8,0.40
2013-5-19,79.0,69.8,64.0,71.0,66.6,64.0,100,90,71,0.00,40.00,4,1,9,0.22
2013-5-20,84.0,70.6,62.0,67.0,64.8,62.0,100,84,54,0.00,40.00,4,2,9,0.02
2013-5-21,88.0,73.2,63.0,70.0,65.7,60.0,100,81,41,0.00,40.00,5,2,20,0.12
2013-5-22,86.0,68.2,61.0,69.0,64.5,61.0,100,89,55,0.00,40.00,5,2,19,0.88
2013-5-23,82.0,69.8,63.0,66.0,61.8,54.0,100,78,46,0.00,40.00,5,2,15,0.46
2013-5-24,70.0,62.8,54.0,55.0,46.4,37.0,84,57,32,0.00,40.00,8,4,17,0.01
2013-5-25,75.0,60.0,44.0,51.0,42.7,37.0,97,59,28,0.00,40.00,4,2,11,0.00
2013-5-26,77.0,65.1,57.0,54.0,46.7,42.0,82,53,35,0.00,40.00,3,2,9,0.00
2013-5-27,85.0,69.1,54.0,59.0,55.7,52.0,94,66,39,0.00,40.00,4,2,10,0.00
2013-5-28,87.0,73.1,59.0,64.0,60.3,58.0,99,68,40,0.00,40.00,4,2,13,0.00
2013-5-29,87.0,73.7,59.0,66.0,62.3,58.0,98,71,45,0.00,40.00,4,2,10,0.00
2013-5-30,89.0,75.3,59.0,65.0,60.7,55.0,96,64,32,0.00,40.00,4,2,10,0.00
2013-5-31,89.0,75.7,61.0,65.0,61.9,59.0,93,65,38,0.00,40.00,5,2,11,0.00